Location: Rioux
(40.7500°S, 175.7500°E)
Time: 11:15:17
(UTC+00:00)

H-2A R/B (2) - Pass Details

Date: 12 June 2024
Orbit: 469 x 34263 km, 28.5° (Epoch: 17 July)

Event Time Altitude Azimuth Distance (km) Brightness Sun altitude
Rises 18:48:03 0° 320° (NW) 2,747 4.7 -9.4°
Reaches altitude 10° 18:49:50 10° 337° (NNW) 2,180 4.4 -9.1°
Maximum altitude 18:53:41 25° 36° (NE) 2,234 5.2 -8.4°
Drops below altitude 10° 19:04:34 10° 85° (E) 6,526 8.1 -6.5°
Sets 19:18:17 0° 92° (E) 11,641 9.2 -4.2°
